カタログに戻る

STARLINK-37412

運用中通信VLEO
NORAD 69248·PAYLOAD·🇺🇸 United States

打ち上げ May 29, 2026 から Cape Canaveral Space Force Station

Loading…

次のパス (今後24時間)

TLE

最新Source: CelesTrak SupGP

元期: Sep 14, 2026, 14:36 UTC

1 69248C 26117L   26257.60881944  .00056164  00000+0  16591-2 0  2570
2 69248  53.1568 181.1433 0001158 104.2933 285.1480 15.34368162    15

AllMySatでSTARLINK-37412をリアルタイム追跡

Download on the App Store